Time,TemperatureF,DewpointF,PressureIn,WindDirection,WindDirectionDegrees,WindSpeedMPH,WindSpeedGustMPH,Humidity,HourlyPrecipIn,Conditions,Clouds,dailyrainin,SoftwareType,DateUTC
2013-09-19 00:01:00,70.0,61.0,29.95,SE,132,2.0,6.0,72,-99.99,,,-99.99,,2013-09-19 04:01:00,
2013-09-19 00:14:00,69.0,60.0,29.94,South,184,3.0,7.0,74,-99.99,,,-99.99,,2013-09-19 04:14:00,
2013-09-19 00:25:00,69.0,61.0,29.95,SSW,198,3.0,7.0,75,-99.99,,,-99.99,,2013-09-19 04:25:00,
2013-09-19 00:44:00,70.0,62.0,29.95,South,189,0.0,7.0,77,-99.99,,,-99.99,,2013-09-19 04:44:00,
2013-09-19 00:54:00,70.0,63.0,29.96,SSW,206,0.0,4.0,79,-99.99,,,-99.99,,2013-09-19 04:54:00,
2013-09-19 01:13:00,70.0,64.0,29.97,SSW,206,0.0,3.0,80,-99.99,,,-99.99,,2013-09-19 05:13:00,
2013-09-19 01:23:00,69.0,63.0,29.97,SSW,206,1.0,4.0,82,-99.99,,,-99.99,,2013-09-19 05:23:00,
2013-09-19 01:43:00,69.0,64.0,29.97,SSW,209,0.0,5.0,85,-99.99,,,-99.99,,2013-09-19 05:43:00,
2013-09-19 01:52:00,68.0,64.0,29.97,SSW,213,2.0,8.0,87,-99.99,,,-99.99,,2013-09-19 05:52:00,
2013-09-19 02:12:00,68.0,65.0,29.96,West,271,6.0,16.0,90,-99.99,,,-99.99,,2013-09-19 06:12:00,
2013-09-19 02:22:00,68.0,65.0,29.95,SW,223,5.0,14.0,91,-99.99,,,-99.99,,2013-09-19 06:22:00,
2013-09-19 02:43:00,68.0,65.0,29.96,WSW,243,1.0,7.0,91,-99.99,,,-99.99,,2013-09-19 06:43:00,
2013-09-19 02:52:00,68.0,66.0,29.96,WSW,243,0.0,4.0,92,-99.99,,,-99.99,,2013-09-19 06:52:00,
2013-09-19 03:12:00,68.0,66.0,29.97,WSW,243,0.0,3.0,92,-99.99,,,-99.99,,2013-09-19 07:12:00,
2013-09-19 03:22:00,67.0,65.0,29.96,WSW,243,0.0,3.0,92,-99.99,,,-99.99,,2013-09-19 07:22:00,
2013-09-19 03:42:00,67.0,65.0,29.96,WSW,243,0.0,1.0,92,-99.99,,,-99.99,,2013-09-19 07:42:00,
2013-09-19 03:52:00,66.0,64.0,29.95,WSW,243,0.0,1.0,93,-99.99,,,-99.99,,2013-09-19 07:52:00,
2013-09-19 04:12:00,66.0,64.0,29.95,WSW,243,0.0,3.0,93,-99.99,,,-99.99,,2013-09-19 08:12:00,
2013-09-19 04:22:00,66.0,64.0,29.95,WSW,243,2.0,3.0,93,-99.99,,,-99.99,,2013-09-19 08:22:00,
2013-09-19 04:42:00,66.0,64.0,29.94,WSW,243,0.0,1.0,94,-99.99,,,-99.99,,2013-09-19 08:42:00,
2013-09-19 04:52:00,66.0,64.0,29.93,WSW,243,0.0,1.0,94,-99.99,,,-99.99,,2013-09-19 08:52:00,
2013-09-19 05:11:00,66.0,64.0,29.93,WSW,243,0.0,1.0,94,-99.99,,,-99.99,,2013-09-19 09:11:00,
2013-09-19 05:22:00,66.0,64.0,29.93,WSW,243,0.0,1.0,94,-99.99,,,-99.99,,2013-09-19 09:22:00,
2013-09-19 05:53:00,66.0,65.0,29.93,WSW,243,0.0,3.0,95,-99.99,,,-99.99,,2013-09-19 09:53:00,
2013-09-19 06:12:00,66.0,65.0,29.93,WSW,243,0.0,1.0,95,-99.99,,,-99.99,,2013-09-19 10:12:00,
2013-09-19 06:24:00,66.0,65.0,29.93,WSW,244,3.0,6.0,95,-99.99,,,-99.99,,2013-09-19 10:24:00,
2013-09-19 06:43:00,66.0,65.0,29.94,SSW,198,5.0,11.0,95,-99.99,,,-99.99,,2013-09-19 10:43:00,
2013-09-19 06:52:00,66.0,65.0,29.94,SW,222,2.0,7.0,95,-99.99,,,-99.99,,2013-09-19 10:52:00,
2013-09-19 07:12:00,66.0,65.0,29.96,WSW,242,3.0,5.0,95,-99.99,,,-99.99,,2013-09-19 11:12:00,
2013-09-19 07:22:00,66.0,65.0,29.97,WSW,257,2.0,5.0,95,-99.99,,,-99.99,,2013-09-19 11:22:00,
2013-09-19 07:42:00,65.0,64.0,29.97,WSW,256,1.0,4.0,95,-99.99,,,-99.99,,2013-09-19 11:42:00,
2013-09-19 07:53:00,65.0,64.0,29.97,SE,144,0.0,6.0,95,-99.99,,,-99.99,,2013-09-19 11:53:00,
2013-09-19 08:11:00,65.0,64.0,29.97,SSW,198,4.0,10.0,95,-99.99,,,-99.99,,2013-09-19 12:11:00,
2013-09-19 08:22:00,65.0,64.0,29.98,South,187,2.0,6.0,95,-99.99,,,-99.99,,2013-09-19 12:22:00,
2013-09-19 08:43:00,65.0,64.0,29.98,South,188,1.0,6.0,96,-99.99,,,-99.99,,2013-09-19 12:43:00,
2013-09-19 08:52:00,65.0,64.0,29.98,SW,223,3.0,9.0,96,-99.99,,,-99.99,,2013-09-19 12:52:00,
2013-09-19 09:11:00,65.0,64.0,29.98,SW,223,1.0,7.0,96,-99.99,,,-99.99,,2013-09-19 13:11:00,
2013-09-19 09:22:00,65.0,64.0,29.98,SW,223,3.0,10.0,96,-99.99,,,-99.99,,2013-09-19 13:22:00,
2013-09-19 09:42:00,65.0,64.0,29.98,WSW,247,3.0,6.0,96,-99.99,,,-99.99,,2013-09-19 13:42:00,
2013-09-19 09:52:00,65.0,64.0,29.99,WSW,249,1.0,6.0,96,-99.99,,,-99.99,,2013-09-19 13:52:00,
2013-09-19 10:12:00,65.0,64.0,29.99,WSW,249,0.0,3.0,96,-99.99,,,-99.99,,2013-09-19 14:12:00,
2013-09-19 10:22:00,65.0,64.0,29.98,WSW,249,2.0,5.0,96,-99.99,,,-99.99,,2013-09-19 14:22:00,
2013-09-19 10:52:00,66.0,65.0,29.97,SSW,209,4.0,10.0,96,-99.99,,,-99.99,,2013-09-19 14:52:00,
2013-09-19 11:11:00,66.0,65.0,29.97,WNW,302,3.0,9.0,96,-99.99,,,-99.99,,2013-09-19 15:11:00,
2013-09-19 11:22:00,66.0,65.0,29.97,SW,214,1.0,5.0,96,-99.99,,,-99.99,,2013-09-19 15:22:00,
2013-09-19 11:43:00,67.0,66.0,29.96,South,189,4.0,7.0,96,-99.99,,,-99.99,,2013-09-19 15:43:00,
2013-09-19 11:54:00,68.0,67.0,29.96,SSW,200,1.0,7.0,96,-99.99,,,-99.99,,2013-09-19 15:54:00,
2013-09-19 12:04:00,68.0,67.0,29.96,SSW,200,1.0,7.0,96,-99.99,,,-99.99,,2013-09-19 16:04:00,
2013-09-19 12:24:00,69.0,67.0,29.97,SSE,152,0.0,5.0,94,-99.99,,,-99.99,,2013-09-19 16:24:00,
2013-09-19 12:43:00,69.0,67.0,29.97,SSW,199,1.0,4.0,94,-99.99,,,-99.99,,2013-09-19 16:43:00,
2013-09-19 12:53:00,70.0,68.0,29.97,SSE,159,0.0,5.0,93,-99.99,,,-99.99,,2013-09-19 16:53:00,
2013-09-19 13:12:00,70.0,68.0,29.96,SE,146,0.0,5.0,93,-99.99,,,-99.99,,2013-09-19 17:12:00,
2013-09-19 13:23:00,71.0,69.0,29.95,SE,146,2.0,5.0,93,-99.99,,,-99.99,,2013-09-19 17:23:00,
2013-09-19 13:53:00,71.0,69.0,29.95,SE,140,3.0,10.0,92,-99.99,,,-99.99,,2013-09-19 17:53:00,
2013-09-19 14:11:00,71.0,68.0,29.95,South,172,2.0,11.0,91,-99.99,,,-99.99,,2013-09-19 18:11:00,
2013-09-19 14:22:00,71.0,68.0,29.95,ESE,118,3.0,6.0,91,-99.99,,,-99.99,,2013-09-19 18:22:00,
2013-09-19 14:42:00,71.0,68.0,29.96,ESE,118,0.0,5.0,91,-99.99,,,-99.99,,2013-09-19 18:42:00,
2013-09-19 14:52:00,71.0,69.0,29.96,ESE,117,0.0,1.0,92,-99.99,,,-99.99,,2013-09-19 18:52:00,
2013-09-19 15:12:00,71.0,69.0,29.96,NE,45,2.0,6.0,92,-99.99,,,-99.99,,2013-09-19 19:12:00,
2013-09-19 15:22:00,70.0,68.0,29.97,ENE,77,3.0,9.0,92,-99.99,,,-99.99,,2013-09-19 19:22:00,
2013-09-19 15:42:00,69.0,67.0,29.97,NE,45,6.0,13.0,93,-99.99,,,-99.99,,2013-09-19 19:42:00,
2013-09-19 15:52:00,69.0,67.0,29.97,East,94,4.0,13.0,94,-99.99,,,-99.99,,2013-09-19 19:52:00,
2013-09-19 16:12:00,69.0,67.0,29.97,East,84,3.0,6.0,94,-99.99,,,-99.99,,2013-09-19 20:12:00,
2013-09-19 16:22:00,69.0,67.0,29.95,East,94,1.0,6.0,94,-99.99,,,-99.99,,2013-09-19 20:22:00,
2013-09-19 16:42:00,70.0,68.0,29.93,SE,140,3.0,7.0,94,-99.99,,,-99.99,,2013-09-19 20:42:00,
2013-09-19 16:52:00,70.0,68.0,29.92,ESE,123,3.0,7.0,93,-99.99,,,-99.99,,2013-09-19 20:52:00,
2013-09-19 17:12:00,70.0,67.0,29.91,SSE,155,2.0,11.0,91,-99.99,,,-99.99,,2013-09-19 21:12:00,
2013-09-19 17:22:00,71.0,68.0,29.91,East,95,3.0,7.0,89,-99.99,,,-99.99,,2013-09-19 21:22:00,
2013-09-19 17:44:00,71.0,68.0,29.91,SE,130,4.0,7.0,89,-99.99,,,-99.99,,2013-09-19 21:44:00,
2013-09-19 17:55:00,72.0,68.0,29.90,SE,139,4.0,8.0,88,-99.99,,,-99.99,,2013-09-19 21:55:00,
2013-09-19 18:14:00,72.0,68.0,29.90,SE,136,4.0,8.0,87,-99.99,,,-99.99,,2013-09-19 22:14:00,
2013-09-19 18:24:00,73.0,68.0,29.90,SE,126,4.0,10.0,85,-99.99,,,-99.99,,2013-09-19 22:24:00,
2013-09-19 18:53:00,73.0,68.0,29.88,ESE,109,4.0,9.0,84,-99.99,,,-99.99,,2013-09-19 22:53:00,
2013-09-19 19:12:00,72.0,67.0,29.88,East,101,2.0,7.0,85,-99.99,,,-99.99,,2013-09-19 23:12:00,
2013-09-19 19:23:00,72.0,67.0,29.88,South,169,5.0,9.0,85,-99.99,,,-99.99,,2013-09-19 23:23:00,
2013-09-19 19:53:00,71.0,66.0,29.85,SE,132,7.0,12.0,85,-99.99,,,-99.99,,2013-09-19 23:53:00,
2013-09-19 20:12:00,71.0,67.0,29.84,SE,130,5.0,12.0,86,-99.99,,,-99.99,,2013-09-20 00:12:00,
2013-09-19 20:22:00,71.0,67.0,29.84,SSE,156,4.0,11.0,87,-99.99,,,-99.99,,2013-09-20 00:22:00,
2013-09-19 20:42:00,71.0,67.0,29.84,SSE,162,6.0,11.0,87,-99.99,,,-99.99,,2013-09-20 00:42:00,
2013-09-19 20:52:00,71.0,67.0,29.85,South,171,3.0,7.0,87,-99.99,,,-99.99,,2013-09-20 00:52:00,
2013-09-19 21:12:00,71.0,67.0,29.85,South,171,4.0,13.0,87,-99.99,,,-99.99,,2013-09-20 01:12:00,
2013-09-19 21:22:00,71.0,67.0,29.86,SSE,149,1.0,7.0,87,-99.99,,,-99.99,,2013-09-20 01:22:00,
2013-09-19 21:42:00,71.0,67.0,29.87,South,177,3.0,9.0,88,-99.99,,,-99.99,,2013-09-20 01:42:00,
2013-09-19 21:52:00,71.0,67.0,29.87,South,178,3.0,7.0,88,-99.99,,,-99.99,,2013-09-20 01:52:00,
2013-09-19 22:12:00,71.0,67.0,29.88,SSE,167,5.0,7.0,88,-99.99,,,-99.99,,2013-09-20 02:12:00,
2013-09-19 22:22:00,71.0,68.0,29.88,South,175,2.0,7.0,89,-99.99,,,-99.99,,2013-09-20 02:22:00,
2013-09-19 22:42:00,71.0,68.0,29.88,South,178,3.0,7.0,89,-99.99,,,-99.99,,2013-09-20 02:42:00,
2013-09-19 22:43:00,71.0,68.0,29.87,South,182,1.0,10.0,89,-99.99,,,-99.99,,2013-09-20 02:43:00,
2013-09-19 22:53:00,71.0,68.0,29.88,South,188,2.0,8.0,89,-99.99,,,-99.99,,2013-09-20 02:53:00,
2013-09-19 23:12:00,71.0,68.0,29.87,South,182,1.0,10.0,89,-99.99,,,-99.99,,2013-09-20 03:12:00,
2013-09-19 23:23:00,71.0,68.0,29.87,South,182,1.0,10.0,89,-99.99,,,-99.99,,2013-09-20 03:23:00,
2013-09-19 23:34:00,71.0,68.0,29.87,South,182,1.0,10.0,89,-99.99,,,-99.99,,2013-09-20 03:34:00,